Location: Ústí nad Labem
(50.6611°N, 14.0531°E)
Time: 19:37:13
(UTC+02:00)

Transit 2A - All Passes

Search period start: 23 April 2024 00:00
Search period end: 03 May 2024 00:00
Orbit: 596 x 956 km, 66.7° (Epoch: 23 April)

Date Brightness Start Highest point End Pass type
(mag) Time Alt. Az. Time Alt. Az. Time Alt. Az.
23 Apr - 06:48:42 10° SSW 06:53:01 54° ESE 06:57:43 10° NE daylight
23 Apr - 08:32:20 10° W 08:36:25 31° NW 08:40:50 10° NNE daylight
23 Apr - 10:18:32 10° NW 10:21:11 14° N 10:23:57 10° NNE daylight
23 Apr - 12:03:21 10° NNW 12:06:28 16° NNE 12:09:44 10° NE daylight
23 Apr - 13:46:10 10° NNW 13:51:05 36° NE 13:56:26 10° ESE daylight
23 Apr - 15:29:07 10° NW 15:34:30 60° WSW 15:40:23 10° SSE daylight
23 Apr - 17:14:49 10° W 17:16:44 12° WSW 17:18:42 10° WSW daylight
24 Apr - 06:13:56 10° S 06:18:01 37° ESE 06:22:25 10° NE daylight
24 Apr - 07:56:49 10° WSW 08:01:05 40° NW 08:05:46 10° NNE daylight
24 Apr - 09:42:42 10° NW 09:45:38 16° NNW 09:48:43 10° NNE daylight
24 Apr - 11:28:07 10° NNW 11:30:54 14° N 11:33:49 10° NE daylight
24 Apr - 13:11:06 10° NNW 13:15:44 29° NE 13:20:44 10° E daylight
24 Apr - 14:53:55 10° NW 14:59:24 80° SW 15:05:24 10° SSE daylight
24 Apr - 16:38:21 10° WNW 16:41:53 17° WSW 16:45:34 10° SW daylight
25 Apr - 05:39:25 10° SSE 05:43:05 25° ESE 05:46:59 10° ENE daylight
25 Apr - 07:21:24 10° SW 07:25:49 53° NW 07:30:40 10° NNE daylight
25 Apr - 09:06:51 10° WNW 09:10:06 18° NNW 09:13:33 10° NNE daylight
25 Apr - 10:52:45 10° NNW 10:55:20 14° N 10:57:59 10° NE daylight
25 Apr - 12:36:02 10° NNW 12:40:19 24° NNE 12:44:57 10° E daylight
25 Apr - 14:18:47 10° NW 14:24:14 78° NE 14:30:14 10° SE daylight
25 Apr - 16:02:35 10° WNW 16:06:59 24° WSW 16:11:37 10° SSW daylight
26 Apr - 05:05:15 10° SSE 05:08:12 17° ESE 05:11:17 10° ENE visible
26 Apr - 06:46:07 10° SW 06:50:36 75° NW 06:55:32 10° NE daylight
26 Apr - 08:31:02 10° WNW 08:34:37 21° NNW 08:38:27 10° NNE daylight
26 Apr - 10:17:15 10° NNW 10:19:43 13° N 10:22:18 10° NNE daylight
26 Apr - 12:00:56 10° NNW 12:04:53 21° NNE 12:09:04 10° ENE daylight
26 Apr - 13:43:40 10° NNW 13:49:02 59° NE 13:54:55 10° SE daylight
26 Apr - 15:27:04 10° NW 15:32:00 33° WSW 15:37:17 10° S daylight
27 Apr - 04:31:50 10° ESE 04:33:22 12° ESE 04:34:57 10° E visible
27 Apr - 06:10:59 10° SSW 06:15:28 78° SE 06:20:22 10° NE daylight
27 Apr - 07:55:17 10° W 07:59:10 25° NNW 08:03:21 10° NNE daylight
27 Apr - 09:41:35 10° NW 09:44:08 14° N 09:46:48 10° NNE daylight
27 Apr - 11:25:49 10° NNW 11:29:22 18° NNE 11:33:08 10° ENE daylight
27 Apr - 13:08:34 10° NNW 13:13:47 46° NE 13:19:28 10° ESE daylight
27 Apr - 14:51:43 10° NW 14:56:59 44° WSW 15:02:41 10° S daylight
28 Apr - 05:36:02 10° SSW 05:40:23 54° ESE 05:45:08 10° NE daylight
28 Apr - 07:19:38 10° W 07:23:46 31° NW 07:28:16 10° NNE daylight
28 Apr - 09:05:48 10° NW 09:08:33 15° N 09:11:26 10° NNE daylight
28 Apr - 10:50:39 10° NNW 10:53:50 16° NNE 10:57:11 10° NE daylight
28 Apr - 12:33:30 10° NNW 12:38:28 36° NE 12:43:52 10° ESE daylight
28 Apr - 14:16:27 10° NW 14:21:55 61° WSW 14:27:51 10° SSE daylight
28 Apr - 16:02:02 10° W 16:04:09 12° WSW 16:06:20 10° SW daylight
29 Apr - 05:01:16 10° S 05:05:23 37° ESE 05:09:49 10° NE visible
29 Apr - 06:44:06 10° WSW 06:48:26 40° NW 06:53:11 10° NNE daylight
29 Apr - 08:29:57 10° NW 08:32:59 16° NNW 08:36:10 10° NNE daylight
29 Apr - 10:15:24 10° NNW 10:18:16 15° N 10:21:17 10° NE daylight
29 Apr - 11:58:25 10° NNW 12:03:06 29° NE 12:08:11 10° E daylight
29 Apr - 13:41:15 10° NW 13:46:48 81° SW 13:52:50 10° SSE daylight
29 Apr - 15:25:39 10° WNW 15:29:17 18° WSW 15:33:06 10° SSW daylight
30 Apr - 04:26:45 10° SSE 04:30:26 25° ESE 04:34:21 10° ENE visible
30 Apr - 06:08:41 10° SW 06:13:09 54° NW 06:18:05 10° NNE daylight
30 Apr - 07:54:06 10° WNW 07:57:26 18° NNW 08:01:00 10° NNE daylight
30 Apr - 09:40:01 10° NNW 09:42:40 14° N 09:45:26 10° NE daylight
30 Apr - 11:23:20 10° NNW 11:27:42 24° NNE 11:32:22 10° E daylight
30 Apr - 13:06:06 10° NW 13:11:38 77° NE 13:17:40 10° SE daylight
30 Apr - 14:49:54 10° WNW 14:54:23 24° WSW 14:59:07 10° SSW daylight
01 May - 03:52:35 10° SSE 03:55:32 17° ESE 03:58:39 10° ENE visible
01 May - 05:33:24 10° SW 05:37:57 76° NW 05:42:56 10° NE daylight
01 May - 07:18:17 10° WNW 07:21:57 21° NNW 07:25:52 10° NNE daylight
01 May - 09:04:28 10° NNW 09:07:04 14° N 09:09:46 10° NNE daylight
01 May - 10:48:14 10° NNW 10:52:14 21° NNE 10:56:28 10° ENE daylight
01 May - 12:30:59 10° NNW 12:36:25 59° NE 12:42:20 10° SE daylight
01 May - 14:14:23 10° NW 14:19:24 33° WSW 14:24:45 10° S daylight
02 May - 03:19:10 10° ESE 03:20:43 12° ESE 03:22:18 10° E visible
02 May - 04:58:17 10° SSW 05:02:47 77° SE 05:07:44 10° NE visible
02 May - 06:42:32 10° W 06:46:29 26° NNW 06:50:46 10° NNE daylight
02 May - 08:28:48 10° NW 08:31:27 14° N 08:34:13 10° NNE daylight
02 May - 10:13:06 10° NNW 10:16:43 18° NNE 10:20:33 10° ENE daylight
02 May - 11:55:53 10° NNW 12:01:09 46° NE 12:06:52 10° ESE daylight
02 May - 13:39:02 10° NW 13:44:22 45° WSW 13:50:07 10° S daylight
